Overview Statistics Trail Chart Weather Telemetry Raw packets
 

This is the latest recevied weather packets stored in our database for station/object VE8SKI. If no packets are shown the sender has not sent any weather packets the latest 10 day(s).

<< 39 40 41 42 43 44 45 >>
Time Temp. Humidity Pressure Rain* Wind** Luminosity Snow
1777840349 1.11° C 70% 1017.9 hPa 0 mm 2.68 m/s, 69° - -
1777840049 1.11° C 71% 1017.9 hPa 0 mm 1.79 m/s, 51° - -
1777839747 0.56° C 70% 1017.8 hPa 0 mm 2.24 m/s, 17° - -
1777839447 1.11° C 71% 1017.8 hPa 0 mm 1.34 m/s, 34° - -
1777839148 0.56° C 71% 1017.7 hPa 0 mm 3.13 m/s, 80° - -
1777838848 0.56° C 71% 1017.7 hPa 0 mm 2.68 m/s, 65° - -
1777838548 0.56° C 72% 1017.7 hPa 0 mm 2.68 m/s, 59° - -
1777838249 0.56° C 72% 1017.6 hPa 0 mm 2.68 m/s, 15° - -
1777837947 0.56° C 73% 1017.6 hPa 0 mm 1.79 m/s, 69° - -
1777837647 0.56° C 73% 1017.6 hPa 0 mm 2.24 m/s, 63° - -
1777837347 0° C 75% 1017.6 hPa 0 mm 1.34 m/s, 32° - -
1777837048 0° C 73% 1017.6 hPa 0 mm 3.58 m/s, 38° - -
1777836748 0.56° C 74% 1017.6 hPa 0 mm 2.68 m/s, 24° - -
1777836449 0° C 74% 1017.6 hPa 0 mm 2.68 m/s, 49° - -
1777836146 0° C 74% 1017.6 hPa 0 mm 1.34 m/s, 65° - -
1777835847 0° C 74% 1017.6 hPa 0 mm 2.24 m/s, 18° - -
1777835547 0° C 74% 1017.5 hPa 0 mm 1.34 m/s, 44° - -
1777835247 -0.56° C 74% 1017.5 hPa 0 mm 2.24 m/s, 55° - -
1777834948 0° C 74% 1017.4 hPa 0 mm 2.24 m/s, 44° - -
1777834648 -0.56° C 75% 1017.4 hPa 0 mm 2.24 m/s, 27° - -
1777834346 -0.56° C 75% 1017.3 hPa 0 mm 3.13 m/s, 53° - -
1777834046 -0.56° C 75% 1017.3 hPa 0 mm 3.13 m/s, 84° - -
1777833746 -0.56° C 75% 1017.2 hPa 0 mm 2.68 m/s, 75° - -
1777833447 -1.11° C 75% 1017.2 hPa 0 mm 2.68 m/s, 44° - -
1777833147 -0.56° C 76% 1017.1 hPa 0 mm 2.24 m/s, 70° - -

* Rain latest hour (hover to see other rain measurements)
** Current wind speed in m/s (hover to see current wind gust speed)